Date_and_time,latitude,longitude,wind_speed,RelWindDirFrom,WindDirFrom,air_pressure,air_temperature,relative_humidity,Temp,platform_speed_wrt_ground,air_pressure_at_mean_sea_level,platform_orientation
2019-05-22 23:50,50.6304716666667,-96.9807916666667,17.4,21.0,74,984.35,11.7,77,12.37,0.0,1011.00,278.0
2019-05-23 00:00,50.6304716666667,-96.98079,18.4,22.9,74,984.37,11.7,76,12.38,0.0,1011.02,360.0
2019-05-23 00:10,50.6304716666667,-96.9807916666667,19.1,22.8,70,984.51,11.5,78,12.35,0.0,1011.17,360.0
2019-05-23 00:20,50.6304666666667,-96.9808033333333,18.4,22.3,68,984.57,11.1,81,12.35,0.0,1011.24,360.0
2019-05-23 00:30,50.63047,-96.9808016666667,17.1,19.9,64,984.54,10.8,84,12.37,0.0,1011.21,360.0
2019-05-23 00:40,50.630455,-96.9807566666667,15.6,17.9,59,984.49,10.8,84,12.38,0.0,1011.16,360.0
2019-05-23 00:50,50.63046,-96.9807716666667,16.1,18.9,57,984.46,10.9,82,12.37,0.0,1011.12,360.0
2019-05-23 01:00,50.6304616666667,-96.98079,14.5,17.1,57,984.47,10.8,81,12.38,0.0,1011.14,138.7
2019-05-23 01:10,50.6304583333333,-96.980795,12.5,15.0,51,984.35,10.9,80,12.43,0.0,1011.00,138.7
2019-05-23 01:20,50.6304533333333,-96.9808183333333,12.4,14.4,48,984.16,11.1,78,12.44,0.0,1010.79,138.7
2019-05-23 01:30,50.630455,-96.980795,11.7,14.9,57,983.99,11.2,77,12.45,0.0,1010.61,138.7
2019-05-23 01:40,50.6304316666667,-96.9807916666667,12.2,15.7,58,983.94,11.3,76,12.44,0.0,1010.55,138.7
2019-05-23 01:50,50.630455,-96.98079,10.6,12.5,45,984.02,11.1,77,12.43,0.0,1010.65,138.7
2019-05-23 02:00,50.6304566666667,-96.9807883333333,11.0,12.8,35,984.10,11.0,78,12.45,0.0,1010.75,360.0
2019-05-23 02:10,50.6304616666667,-96.9807883333333,11.9,13.9,33,984.19,11.0,78,12.46,0.0,1010.86,360.0
2019-05-23 02:20,50.6304516666667,-96.9807833333333,10.8,13.1,24,984.24,10.9,79,12.46,0.0,1010.93,360.0
2019-05-23 02:30,50.6304616666667,-96.98079,11.4,13.1,17,984.43,10.8,83,12.46,0.0,1011.13,360.0
2019-05-23 02:40,50.6304633333333,-96.9807883333333,12.2,14.6,23,984.51,10.8,80,12.45,0.0,1011.20,360.0
2019-05-23 02:50,50.6304633333333,-96.98079,11.7,13.3,26,984.67,10.9,81,12.42,0.0,1011.37,360.0
2019-05-23 03:00,50.6304633333333,-96.9807883333333,11.3,13.7,17,984.82,10.7,83,12.41,0.0,1011.53,360.0
2019-05-23 03:10,50.6304616666667,-96.9808,11.7,13.9,16,984.91,10.7,83,12.41,0.0,1011.61,360.0
2019-05-23 03:20,50.6304766666667,-96.9807966666667,10.9,12.5,15,984.95,10.6,85,12.39,0.0,1011.65,360.0
2019-05-23 03:30,50.63047,-96.980785,10.4,11.8,8,984.96,10.5,85,12.37,0.0,1011.67,360.0
2019-05-23 03:40,50.63047,-96.980785,10.4,12.0,16,985.09,10.5,85,12.37,0.0,1011.80,360.0
2019-05-23 03:50,50.6304666666667,-96.9807816666667,10.4,12.3,17,985.06,10.7,82,12.36,0.0,1011.77,360.0
2019-05-23 04:00,50.6304683333333,-96.9807816666667,11.0,12.8,23,985.26,10.9,81,12.35,0.0,1011.97,48.3
2019-05-23 04:10,50.6304666666667,-96.9807833333333,9.3,11.0,17,985.26,10.8,83,12.33,0.0,1011.98,48.3
2019-05-23 04:20,50.6304633333333,-96.9807983333333,10.0,12.0,9,985.33,10.8,83,12.31,0.0,1012.05,48.3
2019-05-23 04:30,50.6304666666667,-96.980785,10.3,12.5,3,985.43,10.7,81,12.34,0.0,1012.16,48.3
2019-05-23 04:40,50.6304666666667,-96.980785,11.0,13.4,3,985.44,10.8,81,12.36,0.0,1012.16,48.3
2019-05-23 04:50,50.63046,-96.9807766666667,11.6,14.1,357,985.43,10.9,79,12.39,0.0,1012.16,48.3
2019-05-23 05:00,50.63046,-96.9807816666667,11.4,15.0,1,985.59,10.9,79,12.38,0.0,1012.31,12.6
2019-05-23 05:10,50.6304616666667,-96.9807816666667,14.3,17.6,4,985.67,10.9,79,12.37,0.0,1012.41,12.6
2019-05-23 05:20,50.6304616666667,-96.9807816666667,13.8,16.5,5,985.70,11.1,78,12.37,0.0,1012.43,12.6
2019-05-23 05:30,50.6304633333333,-96.9807816666667,14.5,17.6,1,985.70,11.3,73,12.37,0.0,1012.43,12.6
2019-05-23 05:40,50.6304633333333,-96.98078,14.3,17.8,3,985.73,11.3,73,12.38,0.0,1012.45,12.6
2019-05-23 05:50,50.6304633333333,-96.98078,15.4,18.7,5,985.75,11.2,74,12.39,0.0,1012.46,12.6
2019-05-23 06:00,50.6304633333333,-96.9807783333333,16.0,18.5,10,985.83,11.1,77,12.37,0.0,1012.55,90.0
2019-05-23 06:10,50.6304666666667,-96.9807866666667,15.6,18.0,10,985.85,11.1,77,12.37,0.0,1012.58,90.0
2019-05-23 06:20,50.63046,-96.9807766666667,14.5,16.7,18,985.88,11.1,76,12.37,0.0,1012.61,90.0
2019-05-23 06:30,50.6304616666667,-96.98078,13.3,16.3,16,985.93,11.1,76,12.37,0.0,1012.66,90.0
2019-05-23 06:40,50.6304616666667,-96.9807833333333,12.5,14.7,11,985.90,11.0,77,12.34,0.0,1012.62,90.0
2019-05-23 06:50,50.6304633333333,-96.9807833333333,12.0,14.4,10,985.95,11.1,76,12.31,0.0,1012.67,90.0
2019-05-23 07:00,50.630465,-96.9807816666667,11.4,13.6,5,986.00,11.3,73,12.30,0.0,1012.72,0.0
2019-05-23 07:10,50.6304666666667,-96.98078,12.4,14.4,6,986.09,11.4,72,12.33,0.0,1012.79,0.0
2019-05-23 07:20,50.6304666666667,-96.98078,11.9,13.7,12,986.11,11.3,74,12.35,0.0,1012.81,0.0
2019-05-23 07:30,50.6304666666667,-96.98078,11.7,13.5,10,986.16,11.2,74,12.35,0.0,1012.86,0.0
2019-05-23 07:40,50.6304666666667,-96.98078,11.6,14.5,7,986.18,11.2,73,12.36,0.0,1012.89,0.0
2019-05-23 07:50,50.6304683333333,-96.98078,12.4,14.7,5,986.22,11.2,73,12.36,0.0,1012.93,0.0
2019-05-23 08:00,50.6304683333333,-96.98078,12.8,15.3,3,986.28,11.2,72,12.35,0.0,1012.99,360.0
2019-05-23 08:10,50.6304683333333,-96.98078,12.3,15.0,7,986.44,11.2,73,12.35,0.0,1013.16,360.0
2019-05-23 08:20,50.6304683333333,-96.9807783333333,12.2,14.2,6,986.54,11.1,73,12.34,0.0,1013.26,360.0
2019-05-23 08:30,50.6304666666667,-96.9807783333333,11.8,14.3,3,986.62,11.1,72,12.34,0.0,1013.35,360.0
2019-05-23 08:40,50.6304683333333,-96.9807783333333,12.4,15.1,3,986.67,11.1,73,12.35,0.0,1013.40,360.0
2019-05-23 08:50,50.6304683333333,-96.98078,12.5,15.5,360,986.77,11.2,71,12.36,0.0,1013.49,360.0
2019-05-23 09:00,50.6304683333333,-96.98078,13.2,15.5,2,986.84,11.2,70,12.36,0.0,1013.55,38.0
2019-05-23 09:10,50.6304683333333,-96.9807783333333,13.3,16.3,3,986.94,11.3,70,12.36,0.0,1013.66,38.0
2019-05-23 09:20,50.6304683333333,-96.98078,13.1,16.5,4,987.07,11.3,71,12.36,0.0,1013.80,38.0
2019-05-23 09:30,50.6304683333333,-96.98078,13.3,16.9,0,987.18,11.1,71,12.36,0.0,1013.92,38.0
2019-05-23 09:40,50.6304683333333,-96.98078,13.2,17.3,4,987.36,10.9,73,12.35,0.0,1014.11,38.0
2019-05-23 09:50,50.6304683333333,-96.98078,12.4,16.6,4,987.50,10.9,73,12.35,0.0,1014.26,38.0
2019-05-23 10:00,50.6304683333333,-96.98078,13.3,16.5,358,987.60,10.8,74,12.35,0.0,1014.37,0.0
2019-05-23 10:10,50.6304683333333,-96.98078,13.2,16.0,358,987.71,10.7,75,12.36,0.0,1014.48,0.0
2019-05-23 10:20,50.6304666666667,-96.980805,13.0,15.7,3,987.82,10.6,76,12.34,0.0,1014.61,0.0
2019-05-23 10:30,50.6304666666667,-96.980795,13.5,16.6,360,987.92,10.5,76,12.32,0.0,1014.71,0.0
2019-05-23 10:40,50.6304666666667,-96.9807916666667,12.4,16.9,357,988.03,10.6,74,12.32,0.0,1014.82,0.0
2019-05-23 10:50,50.6304633333333,-96.9807816666667,8.7,11.6,350,988.21,10.4,75,12.33,0.0,1015.01,0.0
2019-05-23 11:00,50.6304816666667,-96.9807816666667,6.7,9.8,337,988.39,10.0,75,12.32,0.0,1015.21,38.0
2019-05-23 11:10,50.6304733333333,-96.9807833333333,6.4,9.4,323,988.53,9.2,75,12.27,0.0,1015.39,38.0
2019-05-23 11:20,50.63047,-96.9807866666667,7.5,10.9,320,988.70,8.6,78,12.21,0.0,1015.60,38.0
2019-05-23 11:30,50.63047,-96.9807883333333,7.0,10.2,329,988.92,8.5,80,12.21,0.0,1015.85,38.0
2019-05-23 11:40,50.6304683333333,-96.9807883333333,7.3,10.1,342,989.08,8.7,80,12.25,0.0,1016.00,38.0
2019-05-23 11:50,50.6304683333333,-96.980785,9.2,11.5,346,989.19,9.4,79,12.26,0.0,1016.09,38.0
2019-05-23 12:00,50.6304683333333,-96.9807833333333,9.0,12.2,345,989.38,9.8,78,12.25,0.0,1016.27,0.0
2019-05-23 12:10,50.6304683333333,-96.9807816666667,9.1,12.1,348,989.52,9.9,77,12.25,0.0,1016.40,0.0
2019-05-23 12:20,50.63047,-96.9807833333333,9.6,12.6,349,989.73,10.0,77,12.24,0.0,1016.63,0.0
2019-05-23 12:30,50.6304766666667,-96.9807833333333,10.1,14.1,349,989.82,10.2,77,12.21,0.0,1016.71,0.0
2019-05-23 12:40,50.6304766666667,-96.98079,10.3,12.7,350,989.85,10.3,77,12.21,0.0,1016.74,0.0
2019-05-23 12:50,50.63047,-96.98078,10.4,15.2,356,990.00,10.4,78,12.20,0.0,1016.91,0.0
2019-05-23 13:00,50.6304666666667,-96.9807783333333,11.5,14.9,1,990.18,10.5,79,12.22,0.0,1017.13,0.0
2019-05-23 13:10,50.6304666666667,-96.9807766666667,12.6,15.1,3,990.24,10.3,82,12.22,0.0,1017.23,0.0
2019-05-23 13:20,50.6304533333333,-96.9807733333333,13.2,15.7,3,990.28,10.3,82,12.21,0.0,1017.26,0.0
2019-05-23 13:30,50.6304533333333,-96.9807716666667,12.4,15.5,7,990.34,10.3,78,12.22,0.0,1017.33,0.0
2019-05-23 13:40,50.62706,-96.96767,11.3,19.1,26,990.46,10.0,76,12.23,3.2,1017.43,0.0
2019-05-23 13:50,50.6266083333333,-96.9621516666667,11.2,17.9,22,990.54,9.8,78,11.88,1.3,1017.50,0.0
2019-05-23 14:00,50.6266266666667,-96.9621666666667,11.6,13.9,16,990.62,9.7,77,11.75,0.0,1017.58,108.1
2019-05-23 14:10,50.6266316666667,-96.9621283333333,12.6,14.9,16,990.70,9.6,77,11.73,0.0,1017.66,108.1
2019-05-23 14:20,50.62664,-96.9622016666667,12.0,14.2,17,990.69,9.6,78,11.71,0.0,1017.65,108.1
2019-05-23 14:30,50.62664,-96.9621933333333,11.2,13.3,15,990.79,9.6,78,11.69,0.0,1017.74,108.1
2019-05-23 14:40,50.6266233333333,-96.96219,11.1,14.0,11,990.90,9.6,78,11.67,0.0,1017.86,108.1
2019-05-23 14:50,50.626625,-96.9621783333333,9.9,11.8,15,991.04,9.7,77,11.63,0.0,1017.98,108.1
2019-05-23 15:00,50.6266033333333,-96.9621266666667,8.9,10.8,18,991.13,9.9,77,11.59,0.0,1018.07,108.1
2019-05-23 15:10,50.626635,-96.9622283333333,8.2,9.7,15,991.25,10.0,78,11.55,0.0,1018.20,108.1
2019-05-23 15:20,50.6266083333333,-96.9621266666667,8.3,9.7,20,991.20,10.0,78,11.51,0.0,1018.15,108.1
2019-05-23 15:30,50.626655,-96.9622833333333,7.5,8.5,29,991.23,9.9,79,11.50,0.0,1018.19,108.1
2019-05-23 15:40,50.6266466666667,-96.9622216666667,6.9,8.2,35,991.35,9.8,79,11.51,0.0,1018.33,108.1
2019-05-23 15:50,50.62667,-96.9623016666667,7.0,8.0,39,991.36,9.9,77,11.53,0.0,1018.34,108.1
2019-05-23 16:00,50.6266783333333,-96.96229,6.0,7.4,41,991.51,10.0,77,11.55,0.0,1018.49,107.9
2019-05-23 16:10,50.6267,-96.9623433333333,6.6,8.1,52,991.54,10.1,76,11.58,0.0,1018.53,107.9
2019-05-23 16:20,50.6267116666667,-96.9623583333333,6.7,8.3,60,991.62,10.2,76,11.61,0.0,1018.60,107.9
2019-05-23 16:30,50.6284583333333,-96.9810483333333,3.8,12.5,32,991.70,10.4,78,11.69,4.3,1018.67,107.9
2019-05-23 16:40,50.6304533333333,-96.9807616666667,6.9,9.4,59,991.78,11.0,77,12.30,0.7,1018.73,107.9
2019-05-23 16:50,50.6304533333333,-96.9807566666667,5.8,7.0,69,991.92,11.4,78,12.35,0.0,1018.84,107.9
2019-05-23 17:00,50.6304516666667,-96.9807516666667,5.4,6.3,66,992.03,11.5,78,12.31,0.0,1018.93,288.0
2019-05-23 17:10,50.63045,-96.9807566666667,5.5,6.9,65,992.14,11.7,76,12.26,0.0,1019.04,288.0
2019-05-23 17:20,50.63045,-96.9807583333333,5.7,6.4,69,992.26,11.8,76,12.22,0.0,1019.16,288.0
2019-05-23 17:30,50.63045,-96.9807583333333,5.0,6.2,71,992.38,12.2,75,12.27,0.0,1019.28,288.0
2019-05-23 17:40,50.63043,-96.9807516666667,4.9,6.3,55,992.40,12.2,73,12.31,0.0,1019.30,288.0
2019-05-23 17:50,50.6304666666667,-96.9807716666667,5.4,6.5,48,992.38,12.1,74,12.34,0.0,1019.27,288.0
2019-05-23 18:00,50.6304483333333,-96.9807516666667,5.3,6.4,52,992.38,12.2,74,12.38,0.0,1019.26,288.0
2019-05-23 18:10,50.6276516666667,-96.9658383333333,9.3,18.7,69,992.18,12.1,71,12.48,3.6,1019.05,288.0
2019-05-23 18:20,50.6277333333333,-96.9630183333333,10.3,17.6,64,992.22,11.9,72,12.26,0.6,1019.09,288.0
2019-05-23 18:30,50.6277766666667,-96.9630366666667,9.1,10.4,63,992.29,11.9,70,12.07,0.0,1019.14,288.0
2019-05-23 18:40,50.6277566666667,-96.9630333333333,8.4,9.8,66,992.33,12.0,72,12.11,0.0,1019.16,288.0
2019-05-23 18:50,50.6277783333333,-96.9630616666667,8.4,10.4,67,992.30,12.1,72,12.12,0.0,1019.11,288.0
2019-05-23 19:00,50.6277466666667,-96.9630383333333,10.2,11.4,59,992.24,12.3,70,12.13,0.0,1019.04,336.5
2019-05-23 19:10,50.6277566666667,-96.96305,10.4,11.5,58,992.25,12.4,69,12.14,0.0,1019.04,336.5
2019-05-23 19:20,50.6277433333333,-96.963045,11.2,12.4,56,992.24,12.8,66,12.16,0.0,1018.99,336.5
2019-05-23 19:30,50.62774,-96.96304,10.6,11.9,56,992.25,13.1,64,12.17,0.0,1018.98,336.5
2019-05-23 19:40,50.627725,-96.963025,11.0,11.9,55,992.20,12.9,66,12.18,0.0,1018.94,336.5
2019-05-23 19:50,50.627735,-96.963035,11.3,12.2,60,992.10,12.9,65,12.19,0.0,1018.84,336.5
2019-05-23 20:00,50.6277516666667,-96.9630416666667,11.0,12.0,63,992.04,12.9,65,12.20,0.0,1018.78,103.5
2019-05-23 20:10,50.6277583333333,-96.9630533333333,9.7,10.7,63,992.08,12.8,68,12.20,0.0,1018.84,103.5
2019-05-23 20:20,50.6277633333333,-96.9630566666667,9.7,10.8,64,992.02,12.8,69,12.20,0.0,1018.78,103.5
2019-05-23 20:30,50.6277666666667,-96.9630566666667,10.2,11.1,65,991.93,12.9,67,12.20,0.0,1018.68,103.5
2019-05-23 20:40,50.627925,-96.962125,9.7,12.6,66,991.88,13.1,67,12.23,0.2,1018.61,103.5
2019-05-23 20:50,50.6304383333333,-96.9807566666667,5.8,12.3,34,991.91,13.3,70,12.52,4.4,1018.62,103.5
2019-05-23 21:00,50.6304433333333,-96.98076,7.6,8.8,59,991.85,13.7,71,12.86,0.0,1018.54,192.6
2019-05-23 21:10,50.630445,-96.9807616666667,6.4,8.4,59,991.91,13.9,69,12.66,0.0,1018.57,192.6
2019-05-23 21:20,50.630445,-96.980765,5.9,6.9,61,991.87,14.0,69,12.66,0.0,1018.51,192.6
2019-05-23 21:30,50.63047,-96.9807766666667,5.7,6.9,73,991.89,14.5,67,12.75,0.0,1018.51,192.6
2019-05-23 21:40,50.6304466666667,-96.980765,4.6,5.9,77,991.85,15.4,63,12.84,0.0,1018.43,192.6
2019-05-23 21:50,50.6304566666667,-96.9807816666667,3.4,5.0,90,991.81,16.2,61,12.87,0.0,1018.35,192.6
2019-05-23 22:00,50.6304316666667,-96.9807466666667,3.4,4.6,100,991.81,16.9,59,12.83,0.0,1018.32,283.4
2019-05-23 22:10,50.6304366666667,-96.9807516666667,4.2,8.0,88,991.72,16.9,60,12.80,0.0,1018.23,283.4
2019-05-23 22:20,50.630485,-96.9807916666667,4.7,8.3,83,991.69,16.2,58,12.91,0.0,1018.23,283.4
2019-05-23 22:30,50.63043,-96.9807583333333,3.4,5.4,93,991.62,16.5,60,12.99,0.0,1018.14,283.4
2019-05-23 22:40,50.6304483333333,-96.9807683333333,2.8,4.0,101,991.69,17.0,61,13.00,0.0,1018.18,283.4
2019-05-23 22:50,50.6304483333333,-96.980765,2.1,3.0,103,991.66,17.5,59,13.07,0.0,1018.10,283.4
2019-05-23 23:00,50.6304483333333,-96.9807633333333,2.6,3.7,113,991.62,17.5,61,13.17,0.0,1018.05,283.5
2019-05-23 23:10,50.6304516666667,-96.9807633333333,3.0,4.2,106,991.58,16.8,61,13.20,0.0,1018.03,283.5
2019-05-23 23:20,50.63045,-96.9807633333333,1.7,2.9,102,991.62,17.5,61,13.21,0.0,1018.03,283.5
2019-05-23 23:30,50.63041,-96.98077,1.6,3.0,97,991.60,17.9,59,13.25,0.0,1017.95,283.5
